Simultaneous Nadir Overpasses (SNOs) Predictions

Prediction of SNOs between LANDSAT-8 and NOAA-19 Satellite Orbit:

Table of predicted SNOs for the next 14.0 days since TLE Epoch: 12/2/2017
Index Date (LANDSAT-8) Time (LANDSAT-8) Lat,Lon (LANDSAT-8) SZA (LANDSAT-8 ) Date (NOAA-19) Time (NOAA-19) Lat,Lon (NOAA-19) SZA (NOAA-19 ) Distance(km) Time Diff (sec)
1 12/02/2017 14:08:59 -76.89, 158.92 80.80 12/02/2017 14:08:35 -76.90, 158.93 80.80 0.87 24
2 12/02/2017 14:58:26 76.83, -33.65 99.14 12/02/2017 14:59:39 76.79, -33.35 99.13 9.33 73
3 12/04/2017 19:42:42 76.91,-104.47 99.51 12/04/2017 19:42:24 76.92,-104.56 99.52 2.95 18
4 12/04/2017 20:32:10 -76.88, 63.07 80.52 12/04/2017 20:33:17 -76.85, 63.06 80.54 3.62 67
5 12/07/2017 01:16:27 -76.90, -7.92 80.24 12/07/2017 01:16:01 -76.93, -7.94 80.21 3.62 26
6 12/07/2017 02:05:53 76.88, 159.66 99.75 12/07/2017 02:07:06 76.88, 159.52 99.75 3.51 73
7 12/09/2017 06:50:10 76.90, 88.65 99.98 12/09/2017 06:49:48 76.90, 88.83 99.99 4.48 22
8 12/09/2017 07:39:38 -76.88,-103.80 80.05 12/09/2017 07:40:43 -76.88,-103.82 80.03 0.81 65
9 12/11/2017 12:23:54 -76.94,-174.64 79.79 12/11/2017 12:23:26 -76.93,-174.65 79.81 0.88 28
10 12/11/2017 13:13:21 76.87, -7.25 100.13 12/11/2017 13:14:30 76.87, -7.13 100.15 2.98 69
11 12/13/2017 17:57:37 76.93, -78.11 100.34 12/13/2017 17:57:13 76.94, -78.05 100.35 1.89 24
12 12/13/2017 18:47:05 -76.91, 89.45 79.68 12/13/2017 18:48:08 -76.89, 89.44 79.69 2.53 63
13 12/15/2017 23:31:21 -76.97, 18.58 79.52 12/15/2017 23:30:51 -76.94, 18.59 79.54 2.52 30




NCC Satellite Simultaneous Nadir Overpasses (SNOs) Prediction Service
